Pittsfield, MA

8:11 PM EST on November 14, 2019 (GMT -0500)
Pittsfield Municipal

Weather History for KPSF - July, 2019

Change the Weather History Date:

Sunday, July 14, 2019

  Actual Average Record
Temperature  
Mean Temperature 73 °F 68 °F  
Max Temperature 83 °F 79 °F 94 °F (1965)
Min Temperature 63 °F 56 °F 50 °F (1945)
Degree Days  
Heating Degree Days 0 1  
Month to date heating degree days 0 14  
Since 1 June heating degree days 67 115  
Since 1 July heating degree days 0 14  
Cooling Degree Days 8 4  
Month to date cooling degree days 92 49  
Year to date cooling degree days 149 118  
Since 1 June cooling degree days 143 105  
Growing Degree Days 23 (Base 50)    
Moisture  
Dew Point 60 °F    
Average Humidity 68    
Maximum Humidity 93    
Minimum Humidity 43    
Precipitation  
Precipitation 0.00 in 0.14 in 0.65 in (1927)
Month to date precipitation 0.35 1.70  
Year to date precipitation 22.94 23.14  
Sea Level Pressure  
Sea Level Pressure 29.87 in    
Wind  
Wind Speed 9 mph (West)    
Max Wind Speed 22 mph    
Max Gust Speed 27 mph    
Visibility 10 miles    
Events      
T = Trace of Precipitation, MM = Missing Value Source: NWS Daily Summary

Daily Weather History Graph

Daily Weather History Graph

Search for Another Location

Airport or City:

Astronomy

Jul. 14, 2019 Rise Set
Actual Time 5:28 AM EDT 8:29 PM EDT
Civil Twilight 4:54 AM EDT 9:02 PM EDT
Nautical Twilight 4:11 AM EDT 9:45 PM EDT
Astronomical Twilight 3:20 AM EDT 10:36 PM EDT
Moon 6:49 PM EDT (7/14) 3:28 AM EDT (7/14)
Length of Visible Light 16h 08m
Length of Day
15h 00m
Waxing Gibbous, 95% of the Moon is Illuminated
Jul 14
Waxing Gibbous
Jul 16
Full
Jul 24
Last Quarter
Jul 31
New
Aug 7
First Quarter

Hourly Weather History & Observations

Time (EDT) Temp. Heat Index Dew Point Humidity Pressure Visibility Wind Dir Wind Speed Gust Speed Precip Events Conditions
12:54 AM 66.0 °F - 62.1 °F 87% 29.83 in 10.0 mi Calm Calm - N/A   Scattered Clouds
1:54 AM 64.9 °F - 62.1 °F 90% 29.83 in 10.0 mi Calm Calm - N/A   Clear
2:54 AM 66.0 °F - 62.1 °F 87% 29.81 in 10.0 mi Calm Calm - N/A   Partly Cloudy
3:54 AM 71.1 °F - 60.1 °F 68% 29.81 in 10.0 mi SW 5.8 mph - N/A   Clear
4:54 AM 70.0 °F - 59.0 °F 68% 29.82 in 10.0 mi SW 4.6 mph - N/A   Clear
5:54 AM 69.1 °F - 61.0 °F 75% 29.83 in 10.0 mi WSW 4.6 mph - N/A   Clear
6:54 AM 71.1 °F - 63.0 °F 75% 29.84 in 10.0 mi Calm Calm - N/A   Partly Cloudy
7:54 AM 73.9 °F - 63.0 °F 68% 29.84 in 10.0 mi WSW 5.8 mph - N/A   Clear
8:54 AM 75.0 °F - 63.0 °F 66% 29.86 in 10.0 mi West 8.1 mph - N/A   Partly Cloudy
9:54 AM 77.0 °F - 63.0 °F 62% 29.86 in 10.0 mi WNW 8.1 mph - N/A   Mostly Cloudy
10:05 AM 75.9 °F - 63.0 °F 64% 29.94 in 10.0 mi West 10.4 mph 18.4 mph N/A   Mostly Cloudy
10:54 AM 80.1 °F 81.5 °F 63.0 °F 56% 29.86 in 10.0 mi West 16.1 mph - N/A   Scattered Clouds
11:54 AM 79.0 °F - 60.1 °F 52% 29.87 in 10.0 mi WNW 10.4 mph - N/A   Mostly Cloudy
12:54 PM 81.0 °F 81.1 °F 57.9 °F 45% 29.86 in 10.0 mi NW 11.5 mph 25.3 mph N/A   Partly Cloudy
1:54 PM 82.9 °F 82.4 °F 57.0 °F 41% 29.86 in 10.0 mi West 10.4 mph 18.4 mph N/A   Clear
2:54 PM 82.0 °F 82.1 °F 59.0 °F 45% 29.86 in 10.0 mi West 15.0 mph 26.5 mph N/A   Scattered Clouds
3:54 PM 82.0 °F 82.1 °F 59.0 °F 45% 29.86 in 10.0 mi WNW 11.5 mph 25.3 mph N/A   Mostly Cloudy
4:54 PM 81.0 °F 81.3 °F 59.0 °F 47% 29.86 in 10.0 mi West 21.9 mph 25.3 mph N/A   Clear
5:54 PM 80.1 °F 80.4 °F 57.0 °F 45% 29.87 in 10.0 mi WNW 13.8 mph - N/A   Partly Cloudy
6:54 PM 77.0 °F - 57.9 °F 52% 29.88 in 10.0 mi WNW 11.5 mph - N/A   Clear
7:54 PM 73.9 °F - 55.9 °F 53% 29.90 in 10.0 mi WNW 13.8 mph - N/A   Clear
8:54 PM 71.1 °F - 55.9 °F 59% 29.92 in 10.0 mi West 11.5 mph - N/A   Clear
9:54 PM 69.1 °F - 57.0 °F 65% 29.94 in 10.0 mi West 11.5 mph - N/A   Clear
10:54 PM 68.0 °F - 57.0 °F 68% 29.94 in 10.0 mi WNW 11.5 mph - N/A   Clear
11:54 PM 66.0 °F - 57.0 °F 73% 29.96 in 10.0 mi West 8.1 mph - N/A   Clear